Home > Weather > Newmarket > Past weeks

Flag for Canada Past Weather in Newmarket, Ontario, Canada — Yesterday and Last 2 Weeks

Now
63 °F

Overcast.


Feels Like: 63 °F
Forecast: 51 / 72 °F
Wind: 7 mph from Northwest

Location: Borden

Current Time: Jun 28, 2016 at 8:15:20 PM

Latest Report: Jun 28, 2016 at 7:00 PM


Visibility: 9 mi

Pressure: 29.99 "Hg

Humidity: 64%

Dew Point: 50 °F

Location of NewmarketLocation

Past Weather in Newmarket — Graph

°F

Newmarket Temperature Yesterday

Maximum temperature yesterday: 90 °F (at 2:00 PM)
Minimum temperature yesterday: 66 °F (at 5:00 AM)
Average temperature yesterday: 75 °F

High & Low Weather Summary for the Past Weeks

 TemperatureHumidityPressure
High91 °F (Jun 19, 2:00 PM)100% (Jun 14, 12:00 AM)30.26 "Hg (Jun 14, 12:00 AM)
Low36 °F (Jun 14, 4:00 AM)25% (Jun 18, 12:00 PM)29.75 "Hg (Jun 20, 6:00 PM)
Average67 °F62%29.98 "Hg
* Reported Jun 13 7:00 PM — Jun 28 7:00 PM, Newmarket, Weather by CustomWeather, © 2016

Note: Actual official high and low records may vary slightly from our data, if they occured in-between our weather recording intervals... More about our weather records

Advertising

Newmarket Weather History for the Previous 24 Hours

Scroll right to see more
 ConditionsComfort  
Time TempWeatherWind HumidityBarometerVisibility
7:00 PM
Tue, Jun 28
63 °FOvercast.7 mph64%29.99 "Hg9 mi
5:00 PM64 °FPartly sunny.16 mph64%29.99 "Hg9 mi
4:00 PM63 °FOvercast.13 mph73%30.00 "Hg9 mi
3:00 PM61 °FOvercast.9 mph77%30.01 "Hg9 mi
2:00 PM63 °FOvercast.14 mph77%29.99 "Hg9 mi
1:00 PM63 °FOvercast.9 mph83%29.99 "Hg9 mi
12:00 PM66 °FMostly cloudy.9 mph78%29.97 "Hg9 mi
11:00 AM64 °FOvercast.8 mph78%29.97 "Hg9 mi
10:00 AM66 °FMostly cloudy.7 mph78%29.96 "Hg9 mi
9:00 AM64 °FOvercast.6 mph83%29.96 "Hg9 mi
8:00 AM63 °FMostly cloudy.6 mph77%29.96 "Hg9 mi
7:00 AM61 °FOvercast.5 mph83%29.95 "Hg9 mi
6:00 AM52 °FPassing clouds.2 mph100%29.94 "Hg9 mi
5:00 AM55 °FClear.5 mph88%29.93 "Hg9 mi
4:00 AM55 °FClear.3 mph94%29.92 "Hg9 mi
3:00 AM59 °FClear.2 mph88%29.92 "Hg9 mi
2:00 AM61 °FClear.5 mph83%29.92 "Hg9 mi
1:00 AM63 °FPassing clouds.2 mph77%29.93 "Hg9 mi
12:00 AM66 °FMostly cloudy.2 mph73%29.93 "Hg9 mi
11:00 PM
Mon, Jun 27
66 °FMostly cloudy.2 mph73%29.93 "Hg9 mi
10:00 PM66 °FPassing clouds.2 mph73%29.92 "Hg9 mi
9:00 PM70 °FOvercast.3 mph64%29.90 "Hg9 mi
8:00 PM72 °FMostly cloudy.12 mph61%29.89 "Hg9 mi
Weather by CustomWeather, © 2016

See weather overviewHow to use our weather pages